Вернуться в каталог

FENGYUN 1C DEB

АктивенPO
NORAD 37694·DEBRIS·🇨🇳 China

Запущен May 10, 1999 с Taiyuan Satellite Launch Center

Loading…

Ближайшие Пролёты (ближайшие 24 часа)

TLE

СвежийSource: Space-Track

Эпоха: Sep 13, 2026, 08:34 UTC

1 37694U 99025ELK 26256.35733947  .00001985  00000-0  88299-3 0  9998
2 37694  98.1836 307.7623 0144075  13.5577  46.4860 14.18510330555956

Отслеживайте FENGYUN 1C DEB в реальном времени с AllMySat

Download on the App Store